Location: Dzierzno
(50.6159°N, 19.2852°E)
Time: 23:51:03
(UTC+00:00)

ISS - Pass Details

Date: 18 November 2025
Orbit: 416 x 421 km, 51.6° (Epoch: 05 December)

Event Time Altitude Azimuth Distance (km) Brightness Sun altitude
Rises 16:23:03 0° 242° (WSW) 2,363 1.7 -14.1°
Reaches altitude 10° 16:25:10 10° 239° (WSW) 1,500 0.3 -14.4°
Maximum altitude 16:28:29 61° 158° (SSE) 482 -3.6 -14.9°
Enters shadow 16:29:45 33° 91° (E) 724 -3.1 -15.1°
